Regional Weather Roundup
Issued by NWS Upton, NY

Current Version | Previous Version | Text Only | Print | Product List | Glossary On
Versions: 1 2 3 4 5 6 7 8 9 10 11 12 13 14 15 16 17 18 19 20 21 22 23 24 25 26 27 28 29 30 31 32 33 34 35 36 37 38 39 40 41 42 43 44 45 46 47 48 49 50
000 ASUS41 KOKX 222208 RWROKX REGIONAL WEATHER ROUNDUP NATIONAL WEATHER SERVICE NEW YORK NY 500 PM EST WED FEB 22 2017 NOTE: "FAIR" INDICATES FEW OR NO CLOUDS BELOW 12,000 FEET WITH NO SIGNIFICANT WEATHER AND/OR OBSTRUCTIONS TO VISIBILITY. NYZ071-072-176-178-NJZ106-104-222300- NEW YORK CITY METRO AREA CITY SKY/WX TMP DP RH WIND PRES REMARKS Central Park PTCLDY 57 39 51 CALM 29.93S Wall St Helipt NOT AVBL LaGuardia APRT MOCLDY 56 39 53 S9 29.91R Kennedy INTL MOCLDY 49 44 83 S7 29.93S Breezy Point N/A 45 N/A N/A SE3 N/A Newark/Liberty MOCLDY 57 40 52 SE3 29.90S Teterboro MOCLDY 58 39 49 SE8 29.90S $$ NYZ177-179-078>081-222300- LONG ISLAND NEW YORK CITY SKY/WX TMP DP RH WIND PRES REMARKS Jones Beach N/A 46 N/A N/A SW2 N/A Matinecock PT NOT AVBL Farmingdale MOCLDY 50 41 71 SW7 29.92S MacArthur/ISP CLOUDY 49 41 74 SW8 29.92R Shirley CLOUDY 48 41 76 SW7 29.93S Westhampton CLOUDY 47 41 80 SW3 29.93F Southampton N/A 45 43 93 SW2 29.90S Bridgehampton NOT AVBL East Hampton N/A 47 40 77 SW3 29.92S Montauk N/A 45 37 73 CALM 29.94S $$ NYZ052-065-067-222300- HUDSON VALLEY CITY SKY/WX TMP DP RH WIND PRES REMARKS White Plains PTCLDY 52 38 58 NE3 29.90R Newburgh PTCLDY 52 41 66 S5 29.90F Montgomery MOCLDY 51 41 68 S6 29.88F Poughkeepsie PTCLDY 52 38 58 S3 29.88F Albany PTCLDY 55 35 47 S7 29.87S $$ NJZ001-105-106-008-010-013-015-019>022-104-222300- NEW JERSEY CITY SKY/WX TMP DP RH WIND PRES REMARKS Newark/Liberty MOCLDY 57 40 52 SE3 29.90S Teterboro MOCLDY 58 39 49 SE8 29.90S Caldwell CLOUDY 60 38 43 CALM 29.90S Somerville CLEAR 58 39 49 S3 29.89R Linden NOT AVBL Sussex CLOUDY 52 42 69 E3 29.89F Andover N/A 56 38 50 S3 29.89S Trenton CLEAR 57 41 55 SW5 29.91R Millville CLEAR 57 50 77 SW3 29.92R Atlantic City CLEAR 56 47 71 S5 29.92S Wrightstown PTCLDY 58 45 61 VRB3 29.89R Toms River CLEAR 61 48 62 SW7 29.92R Belmar CLEAR 54 45 71 E3 29.93R $$ PAZ047>061-062-071-222300- EASTERN PENNSYLVANIA CITY SKY/WX TMP DP RH WIND PRES REMARKS Philadelphia MOCLDY 57 42 57 SW7 29.92S Allentown CLOUDY 61 40 45 W6 29.89S Scranton CLOUDY 56 40 55 SW6 29.88S $$ CTZ002-004>006-009-010-012-RIZ004-006-007-MAZ004-011-015-222300- SOUTHERN NEW ENGLAND IN CT CITY SKY/WX TMP DP RH WIND PRES REMARKS Bradley INTL PTCLDY 53 36 52 S7 29.88F Hartford PTCLDY 54 38 54 S6 29.89R Danbury PTCLDY 47 38 71 SW5 29.91S Wtrbury/Oxford MOCLDY 48 34 57 CALM 29.91S Bridgeport CLOUDY 50 38 63 S3 29.92R Meriden CLOUDY 50 36 58 S6 29.91R New Haven CLOUDY 47 37 68 CALM 29.91F Chester N/A 48 37 66 VRB5 29.90F Groton CLOUDY 44 38 79 SW8 29.91S Wilimantic CLEAR 57 37 47 S5 29.88F IN RI CITY SKY/WX TMP DP RH WIND PRES REMARKS Providence CLOUDY 49 38 65 SE5 29.90R Block Island PTCLDY 44 38 79 SW7 29.93S Westerly MOCLDY 47 36 65 SW7 29.92S IN MA CITY SKY/WX TMP DP RH WIND PRES REMARKS Boston PTCLDY 45 38 76 E5 29.90R Worcester CLEAR 54 37 52 W3 29.87S Westfield CLEAR 52 36 54 S3 29.87S Provincetown CLEAR 47 38 71 E5 29.92R Nantucket PTCLDY 42 38 85 SW6 29.92S $$ ANZ330-335-338-340-345-350-353-355-222300- COASTAL MARINE OBSERVATIONS STATION/POSITION TIME SKY/WX TEMP WIND PRES VSBY WAVE AIR SEA DIR/SP/G HT/PER (UTC) (F) (DEG/KT/KT) (MB) (MI) (FT/S) NY HARB ENTRANCE 2050 44 43 170/ 6/ 8 1012.7 2/ 8 20 S FIRE ISLAND 2150 45 44 210/ 6/ 6 1013.1 2/10 GREAT SOUTH BAY NOT AVBL 23 SSW MONTAUK P 2050 46 45 1013.7 3/11 15 E BARNEGAT LI 2130 42 N/A 3/10 HUDSON CANYON 2050 50 1013.9 3/ 9 KINGS POINT 2148 50 39 1012.7 EXECUTION ROCKS NOT AVBL CENTRAL LI SOUND NOT AVBL EASTERN LI SOUND NOT AVBL ROBBINS REEF 2148 48 180/ 12/ 13 1013.0 $$ >>>>>>>>>>>>>>>>>>>>>>>>>>>> KEY <<<<<<<<<<<<<<<<<<<<<<<<<<< > < > SKY/WX - Sky Condition/Present Weather < > TMP - Temperature in Fahrenheit < > DP - Dew Point in Fahrenheit < > RH - Relative Humidity in Percent < > WIND - Direction (from) and Speed in MPH < > PRES - Mean Sea Level Pressure (inches of Hg) < > WCI - Wind Chill Index < > VSB - VISIBILITY IN MILES < > HX - HEAT INDEX < > TC - TEMPERATURE IN CELSIUS < > VRB - VARIABLE WIND DIRECTION < > < >>>>>>>>>>>>>>>>>>>>>>>>>>>> KEY <<<<<<<<<<<<<<<<<<<<<<<<<<<

USA.gov is the U.S. government's official web portal to all federal, state and local government web resources and services.